Regional Weather Roundup
Issued by NWS Wakefield, VA

Home | Current Version | Previous Version | Graphics & Text | Print | Product List | Glossary On
Versions: 1 2 3 4 5 6 7 8 9 10 11 12 13 14 15 16 17 18 19 20 21 22 23 24 25 26 27 28 29 30 31 32 33 34 35 36 37 38 39 40 41 42 43 44 45 46 47 48 49 50
000
ASUS41 KAKQ 281814
RWRAKQ

REGIONAL WEATHER ROUNDUP
NATIONAL WEATHER SERVICE WAKEFIELD VA
200 PM EDT FRI AUG 28 2015

Note: "fair" indicates few or no clouds below 12,000 feet with no
significant weather and/or obstructions to visibility. * = Denotes
station may not report precipitation (e.g., rain,snow,etc.),
thunder or fog.

VAZ042-051-052>054-056-281900-
NORTHERN VIRGINIA

CITY           SKY/WX    TMP DP  RH WIND       PRES   REMARKS
WASH NATIONAL  PTSUNNY   82  58  43 S5        30.19F
DULLES         PTSUNNY   79  57  46 VRB6      30.19F
FORT BELVOIR   MOSUNNY   80  58  47 S5        30.19S
QUANTICO       MOSUNNY   80  55  42 S6        30.20F
FREDERICKSBRG* MOSUNNY   83  59  44 CALM      30.18F
STAFFORD*      MOSUNNY   81  57  43 NE3       30.23F
WARRENTON      MOSUNNY   83  62  48 NW3       30.19F
CULPEPER*      MOSUNNY   80  60  50 W3        30.19F
MANASSAS*      PTSUNNY   81  59  47 CALM      30.20F
LEESBURG*      MOSUNNY   81  63  54 S9        30.21S
WINCHESTER     CLOUDY    81  55  41 NE3       30.19F
FRONT ROYAL*   MOCLDY    82  61  47 SE5       30.18F
LURAY*         MOCLDY    81  55  41 E3        30.18F
$$

VAZ048-049-060>072-079>083-281900-
CENTRAL AND SOUTH CENTRAL VIRGINIA

CITY           SKY/WX    TMP DP  RH WIND       PRES   REMARKS
RICHMOND       MOSUNNY   85  59  41 VRB6      30.19F
CHESTERFIELD*  MOCLDY    82  54  36 SW5       30.20F
PETERSBURG*    CLOUDY    84  62  48 SE3       30.19F
HANOVER        MOSUNNY   82  59  45 N5        30.21F
TAPPAHANNOCK*  MOSUNNY   83  52  34 CALM      30.20F
QUINTON*       FAIR      81  64  54 E5        30.19F
CHARLOTTSVILLE PTSUNNY   81  61  50 S7        30.19F
GORDONSVILLE*  FAIR      81  61  50 SW7       30.18F
ORANGE*        PTSUNNY   82  59  44 SW8       30.21F
LOUISA*        PTSUNNY   82  59  44 SE5       30.19F
BUMPASS*       MOCLDY    80  60  49 CALM      30.19F
FARMVILLE*     PTSUNNY   83  55  38 CALM      30.18F
CREWE*         FAIR     N/A N/A N/A S3        30.19F
FORT PICKETT*  MOCLDY    81  60  48 E6        30.20F
CHASE CITY*    FAIR      85  62  46 CALM      30.19F
CLARKSVILLE*   FAIR      82  61  47 S7        30.19F
SOUTH HILL*    MOSUNNY   80  60  51 CALM      30.25F
LAWRENCEVILLE* FAIR      82  63  51 E5        30.18F
EMPORIA*       MOSUNNY   81  59  47 N3        30.20F
$$

VAZ088>098-281900-
SOUTHEAST VIRGINIA

CITY           SKY/WX    TMP DP  RH WIND       PRES   REMARKS
NORFOLK        SUNNY     81  57  43 NE9       30.19F
VIRGINIA BEACH MOSUNNY   84  55  36 N9        30.18F
NORFOLK NAVAL  MOSUNNY   82  57  42 NE9       30.20F
WEST POINT*    MOSUNNY   86  51  30 CALM      30.20F
SALUDA*        FAIR      78  62  58 E7G17     30.20S
NEWPORT NEWS   SUNNY     82  58  43 E13       30.19F
LANGLEY AFB    SUNNY     81  54  39 N7        30.18F
FORT EUSTIS    PTSUNNY   82  58  44 NE3       30.17F
WILLIAMSBURG*  SUNNY     91  61  35 N3        30.20S
HR EXEC AP*      N/A     84  57  39 E8        30.20F
FRANKLIN*      SUNNY     82  58  43 NE7       30.19S
WAKEFIELD      MOSUNNY   84  57  39 VRB5      30.18F
$$

VAZ020-022-025-037-045-281900-
WEST CENTRAL AND SOUTHWEST VIRGINIA

CITY           SKY/WX    TMP DP  RH WIND       PRES   REMARKS
STAUNTON*      CLOUDY    81  58  45 SW8       30.21F
WAYNESBORO*    MOCLDY    79  60  51 SE6       30.21F
HOT SPRINGS VA MOSUNNY   71  57  60 SW5       30.30F
LYNCHBURG      MOSUNNY   79  59  50 W5        30.21F
DANVILLE       SUNNY     83  60  45 CALM      30.19F
SOUTH BOSTON*  FAIR      83  56  39 CALM      30.19F
MARTINSVILLE   MOSUNNY   84  58  40 SE6       30.22F
ROANOKE        MOSUNNY   82  60  47 CALM      30.21F
BLACKSBURG     MOSUNNY   76  62  62 CALM      30.26F
DUBLIN*        CLOUDY    80  58  47 CALM      30.24F
MARION*        CLOUDY    76  59  55 CALM      30.26F
HILLSVILLE*    CLOUDY    73  59  62 CALM      30.26F
RICHLANDS*     MOCLDY    76  23  13 W3        30.25F
WISE*          PTSUNNY   81  55  41 SW6       30.25F
ABINGDON*      SUNNY     80  56  44 NW5       30.22F
$$

MDZ021>025-VAZ099-100-281900-
SOUTHERN MARYLAND AND THE DELMARVA PENINSULA

CITY           SKY/WX    TMP DP  RH WIND       PRES   REMARKS
PATUXENT RIVER MOSUNNY   80  56  43 NE7       30.19F
BAY BRIDGE APT   N/A     77  52  41 W3        30.19F
LEONARDTOWN    SUNNY     79  57  47 CALM      30.20F
DOVER          MOSUNNY   78  60  53 VRB3      30.17F
GEORGETOWN     PTSUNNY   82  53  36 VRB5      30.18F
EASTON         NOT AVBL
CAMBRIDGE      SUNNY     79  52  38 CALM      30.18F
SALISBURY      MOSUNNY   81  56  42 VRB3      30.18F
OCEAN CITY     SUNNY     79  55  43 E13       30.19F
WALLOPS ISLAND PTSUNNY   80  59  48 E10       30.19F
ACCOMACK*      SUNNY    N/A N/A N/A NW6       30.18F
$$

NCZ012>017-030>032-281900-
NORTH CENTRAL AND EASTERN NORTH CAROLINA

CITY           SKY/WX    TMP DP  RH WIND       PRES   REMARKS
ROANOKE RAPIDS FAIR      82  55  39 N7        30.18F
RALEIGH        PTSUNNY   84  56  38 VRB7      30.18F
ELIZABETH CITY MOSUNNY   82  62  50 NE12      30.18S
AHOSKIE*       SUNNY     81  60  48 NE9       30.19S
EDENTON*       PTSUNNY   82  62  50 NE7       30.18S
CURRITUCK*     MOSUNNY   81  56  42 N13       30.19F
KILL DEVIL HLS MOSUNNY   82  62  51 N8        30.16S
MANTEO         MOSUNNY   80  65  60 NE12G17   30.17F
CAPE HATTERAS  MOSUNNY   82  66  58 NE12G22   30.14F
TARBORO*       FAIR      85  57  38 NE7       30.18F
GOLDSBORO      MOSUNNY   83  59  45 NE13      30.16F
WASHINGTON     MOSUNNY   80  63  57 N8        30.17F
GREENVILLE     MOSUNNY   82  57  42 NE5       30.18F
NEW BERN       PTSUNNY   81  65  58 N12       30.16F
WILMINGTON     MOSUNNY   86  65  49 N13       30.14S
$$

VAZ048-281900-
ELSEWHERE

CITY           SKY/WX    TMP DP  RH WIND       PRES   REMARKS
HARRISBURG PA  MOSUNNY   79  56  45 W5        30.18F
BALTIMORE      MOSUNNY   78  55  44 CALM      30.18F
ANNAPOLIS      SUNNY     77  58  51 SE8       30.19F
ANDREWS AFB    MOSUNNY   79  56  44 CALM      30.18F
PHILADELPHIA   MOSUNNY   82  51  34 NW13G18   30.17
HENDERSON NC   SUNNY     82  52  34 CALM      30.19F
GREENSBORO     PTSUNNY   81  58  45 VRB3      30.20F
ROCKY MOUNT    MOSUNNY   87  57  35 NE6G18    30.18F
$$

VAZ100-281900-
MARINE

STATION/POSITION TIME  TEMP    WIND        PRES    WAVE   SWELL
                       AIR SEA DIR/SP/G            HT/PER HT/PER
                 (UTC) (F)     (DEG/KT/KT) (MB)    (FT/S) (FT/S)
BRANDYWINE LGT   1700   72 76  330/  3/  4 1023.0F
CAPE MAY NJ      1700   74 79  310/  6/  8 1022.3F
LEWES DE         1700   73 75   10/  5/  6 1022.8F
15NM E FENWICK I 1750   74 78  360/  6/ 10 1022.7F   3/10   2/10
OCEAN-CITY-INLET 1700   75 77   70/  9/ 12 1021.8F
WACHAPREAGUE VA  1700   76 79   80/  9/ 12 1022.5F
THOMAS POINT MD  1800   75 79   80/  4/  5 1023.0
GOOSES REEF MD   1800   75 81   70/  4/  6 1023.5F
COVE POINT MD    1700   74      20/  5/  8 1023.5F
SOLOMONS ISLAND  1700      81                N/A
BISHOPS HEAD MD  1700   76 77  220/  3/  4 1021.8F
PINEY POINT MD   1700          190/  4/  5   N/A
POTOMAC MD       1800   75 80  110/  4/  6 1021.6F   0
CAMBRIDGE MD     1700   77 79   CALM  /  2 1021.7F
LEWISETTA VA     1700   75 78  120/  7/  9 1022.4F
RAPPAHANNOCK LGT 1700           20/  9/ 10 1023.2F
STINGRAY PT      1700   75 80   50/  6/ 10 1023.2F   1/ 2
YORK RVR RNG VA  1700   75      70/ 11/ 12 1022.2F
YORKTOWN VA      1700   77 80   90/  9/ 12 1022.3F
JAMESTOWN VA     1800   79 83   90/  6/ 10   N/A
DOMINION TERM VA 1700   79      70/  7/ 14 1022.5F
KIPTOPEKE VA     1700      79  360/  6/ 13   N/A
CHES BAY BRIDGE  1700   76 79  340/ 10/ 13 1022.1F
CAPE HENRY VA    1700   76      30/  9/ 11   N/A
CHESAPEAKE LGHT  1700   75      20/ 13/ 14 1023.0F
WILLOUBY STN VA  1700   75      30/ 11/ 13 1023.5F
CAPE HENRY BUOY  1728      79                N/A     3/10   2/11
1ST LANDING BUOY 1800      79              1022.0F   2/ 4
CAPE CHARLES BUO 1726      79                N/A     3/11   2/11
OFFSHORE WE BUOY 1711      78                N/A     3/11   3/11
64NM E OF VA BCH 1750   77 80   10/ 14/ 16 1021.0F   4/ 9   3/ 9
DUCK PIER NC     1700   76 78   20/ 14/ 17 1021.2F
44100 DUCK FRF   1724      78                N/A     4/12   2/12
44056 DUCK FRF   1711      78                N/A     4/11   2/11
OREGON INLET NC  1700   78 76   20/ 13/ 17 1021.4F
HATTERAS NC      1700   79 79   20/ 14/ 18 1020.5F



USA.gov is the U.S. government's official web portal to all federal, state and local government web resources and services.